Culdrose, United Kingdom

8:38 PM GMT on December 03, 2016 (GMT +0000)
Culdrose Navy

Weather History for EGDR - April, 2013

Change the Weather History Date:

Monday, April 15, 2013

  Actual Average Record
Temperature  
Mean Temperature 50 °F -  
Max Temperature 53 °F 51 °F 68 °F (2015)
Min Temperature 47 °F 40 °F 33 °F (1998)
Degree Days  
Heating Degree Days 15    
Moisture  
Dew Point 49 °F    
Average Humidity 93    
Maximum Humidity 100    
Minimum Humidity 85    
Precipitation  
Precipitation 0.02 in - - ()
Sea Level Pressure  
Sea Level Pressure 29.96 in    
Wind  
Wind Speed 15 mph ()    
Max Wind Speed 23 mph    
Max Gust Speed 40 mph    
Visibility 1.9 miles    
Events      
Averages and records for this station are not official NWS values.
T = Trace of Precipitation, MM = Missing Value Source: Averaged Metar Reports

Daily Weather History Graph

Daily Weather History Graph

Search for Another Location

Airport or City:

Trip Planner

Search our weather history database for the weather conditions in past years. The results will help you decide how hot, cold, wet, or windy it might be!

Date:

Astronomy

Apr. 15, 2013 Rise Set
Actual Time 6:27 AM BST 8:15 PM BST
Civil Twilight 5:53 AM BST 8:49 PM BST
Nautical Twilight 5:11 AM BST 9:31 PM BST
Astronomical Twilight 4:24 AM BST 10:19 PM BST
Moon 9:24 AM BST (4/15) 12:33 AM BST (4/15)
Length of Visible Light 14h 55m
Length of Day
13h 47m
Waxing Crescent, 23% of the Moon is Illuminated
Apr 15
Waxing Crescent
Apr 18
First Quarter
Apr 25
Full
May 2
Last Quarter
May 10
New

Hourly Weather History & Observations

Time (BST) Temp. Dew Point Humidity Pressure Visibility Wind Dir Wind Speed Gust Speed Precip Events Conditions
12:50 AM 50 °F 48 °F 89% 29.93 in 2 mi SSW 18.4 mph - -   Haze
12:50 AM 50.0 °F 48.2 °F 94% 29.92 in 2.5 mi SSW 18.4 mph 32.2 mph N/A   Haze
1:50 AM 50.0 °F 48.2 °F 94% 29.92 in 2.5 mi SW 19.6 mph 32.2 mph N/A   Haze
2:50 AM 48.2 °F 48.2 °F 100% 29.92 in 1.6 mi SW 16.1 mph - N/A   Mostly Cloudy
3:50 AM 49 °F 48 °F 93% 29.95 in 1 mi SW 16.1 mph - -   Mist
3:50 AM 48.2 °F 48.2 °F 100% 29.92 in 1.2 mi SW 16.1 mph - N/A   Overcast
4:50 AM 48.2 °F 48.2 °F 100% 29.95 in 1.2 mi SW 13.8 mph - N/A   Mostly Cloudy
5:50 AM 48.2 °F 46.4 °F 93% 29.95 in 1.2 mi SW 11.5 mph - N/A   Scattered Clouds
6:50 AM 49 °F 48 °F 93% 30.00 in 1 mi SW 13.8 mph - -   Mist
6:50 AM 48.2 °F 48.2 °F 100% 29.98 in 0.9 mi SW 13.8 mph - N/A   Mostly Cloudy
7:50 AM 50.0 °F 48.2 °F 94% 29.98 in 0.7 mi SSW 12.7 mph - N/A   Overcast
8:50 AM 50.0 °F 48.2 °F 94% 29.98 in 0.9 mi SSW 13.8 mph - N/A   Mostly Cloudy
9:50 AM 50 °F 49 °F 95% 30.03 in 2 mi SW 11.5 mph - -   Mist
9:50 AM 50.0 °F 48.2 °F 94% 30.01 in 1.6 mi SW 11.5 mph - N/A   Mostly Cloudy
10:50 AM 51.8 °F 50.0 °F 94% 30.01 in 1.9 mi SSW 12.7 mph - N/A   Haze
11:50 AM 51.8 °F 50.0 °F 94% 30.01 in 2.2 mi SSW 15.0 mph 26.5 mph N/A   Haze
12:50 PM 53 °F 50 °F 85% 30.03 in 2 mi SSW 16.1 mph - -   Haze
12:50 PM 51.8 °F 50.0 °F 94% 30.01 in 1.9 mi SSW 16.1 mph 28.8 mph N/A   Haze
1:50 PM 51.8 °F 50.0 °F 94% 30.01 in 1.9 mi SSW 15.0 mph 26.5 mph N/A   Haze
2:50 PM 51.8 °F 50.0 °F 94% 30.01 in 1.6 mi SSW 16.1 mph 28.8 mph N/A   Haze
3:50 PM 52 °F 49 °F 86% 29.99 in 2 mi SSW 18.4 mph - -   Haze
3:50 PM 51.8 °F 50.0 °F 94% 29.98 in 1.9 mi SSW 18.4 mph 31.1 mph N/A   Haze
4:50 PM 51.8 °F 48.2 °F 88% 29.98 in 1.9 mi SSW 20.7 mph 32.2 mph N/A   Haze
5:50 PM 51.8 °F 48.2 °F 88% 29.95 in 2.2 mi SSW 18.4 mph 31.1 mph N/A   Haze
6:50 PM 50 °F 48 °F 91% 29.96 in 2 mi SSW 18.4 mph - -   Haze
6:50 PM 50.0 °F 48.2 °F 94% 29.95 in 2.5 mi SSW 18.4 mph 31.1 mph N/A   Haze
7:50 PM 50.0 °F 48.2 °F 94% 29.92 in 2.5 mi SSW 18.4 mph 33.4 mph N/A   Haze
8:50 PM 50.0 °F 48.2 °F 94% 29.89 in 2.5 mi SSW 20.7 mph 34.5 mph N/A   Haze
9:50 PM 50 °F 47 °F 88% 29.91 in 4 mi SSW 20.7 mph - -   Haze
9:50 PM 50.0 °F 48.2 °F 94% 29.89 in 3.7 mi SSW 20.7 mph 34.5 mph N/A   Haze
10:50 PM 50.0 °F 48.2 °F 94% 29.86 in 2.5 mi SSW 21.9 mph 36.8 mph N/A   Light Drizzle
11:50 PM 50.0 °F 48.2 °F 94% 29.86 in 1.6 mi SSW 23.0 mph 40.3 mph N/A   Light Drizzle